Regional Weather Roundup
Issued by NWS Northern Indiana

Home | Current Version | Previous Version | Graphics & Text | Print | Product List | Glossary On
Versions: 1 2 3 4 5 6 7 8 9 10 11 12 13 14 15 16 17 18 19 20 21 22 23 24 25 26 27 28 29 30 31 32 33 34 35 36 37 38 39 40 41 42 43 44 45 46 47 48 49 50
000
ASUS43 KIWX 061210
RWRIWX

KIWX WEATHER ROUNDUP
NATIONAL WEATHER SERVICE NORTHERN INDIANA
800 AM EDT MON JUL 06 2015

NOTE: "FAIR" INDICATES FEW OR NO CLOUDS BELOW 12,000 FEET WITH NO
SIGNIFICANT WEATHER AND/OR OBSTRUCTIONS TO VISIBILITY.

* THESE STATIONS ARE NOT UNDER NWS QUALITY CONTROL. THEY ALSO MAY NOT
  REPORT WEATHER SUCH AS PRECIPITATION OR FOG.

INZ001>027-061300-
NORTHERN INDIANA

CITY           SKY/WX    TMP DP  RH WIND       PRES   REMARKS
GARY*          SUNNY    N/A N/A N/A S5        30.03R FOG
VALPARAISO     SUNNY     66  64  93 S6        30.05R FOG
6HR MIN TEMP:  62; 6HR MAX TEMP:  69;

MICHIGAN CITY* SUNNY     68  66  94 S5        30.05R FOG
LAPORTE*       SUNNY     67  67 100 CALM      30.06R FOG
KNOX*          SUNNY     66  63  88 S5        30.04R
SOUTH BEND     SUNNY     69  63  81 MISG      30.05R
6HR MIN TEMP:  63; 6HR MAX TEMP:  70;

ELKHART*       SUNNY     66  63  88 E3        30.05R
GOSHEN         SUNNY     66  62  87 SE6       30.06R FOG
6HR MIN TEMP:  59; 6HR MAX TEMP:  66;

MONTICELLO*    SUNNY     67  66  97 S7        30.04S FOG
6HR MIN TEMP:  63; 6HR MAX TEMP:  68;

LOGANSPORT*    SUNNY     64  61  88 S6        30.06F FOG
ROCHESTER*     SUNNY     70  66  88 S5        30.07R FOG
WARSAW*          N/A     63  63 100 CALM      30.06S FOG
ANGOLA*          N/A     63  61  94 CALM      30.08S
FORT WAYNE     SUNNY     64  61  90 CALM      30.09R FOG
6HR MIN TEMP:  59; 6HR MAX TEMP:  65;

HUNTINGTON*    SUNNY     65  62  90 CALM      30.09R
6HR MIN TEMP:  59; 6HR MAX TEMP:  68;

PERU/GRISSOM   SUNNY     67  64  91 S6        30.06S
6HR MIN TEMP:  63; 6HR MAX TEMP:  67;

MARION*        SUNNY     62  62  98 S5        30.09S FOG
6HR MIN TEMP:  52; 6HR MAX TEMP:  80;


$$
INZ028>050-061300-
CENTRAL INDIANA

CITY           SKY/WX    TMP DP  RH WIND       PRES   REMARKS
LAFAYETTE      SUNNY     67  65  93 S3        30.05S FOG
6HR MIN TEMP:  63; 6HR MAX TEMP:  69;

KOKOMO*        MOSUNNY   64  61  88 S7        30.08S
6HR MIN TEMP:  61; 6HR MAX TEMP:  66;

MUNCIE*        SUNNY     67  63  87 CALM      30.10R FOG
6HR MIN TEMP:  60; 6HR MAX TEMP:  67;

INDIANAPOLIS   SUNNY     67  63  87 SE6       30.08R FOG
6HR MIN TEMP:  63; 6HR MAX TEMP:  69;


$$
MIZ043>046-050>051-056>058-064>065-071>073-077>080-061300-
SOUTHWEST LOWER MICHIGAN

CITY           SKY/WX    TMP DP  RH WIND       PRES   REMARKS
BATTLE CREEK   SUNNY     66  60  81 S5        30.06F
6HR MIN TEMP:  60; 6HR MAX TEMP:  67;

BENTON HARBOR  SUNNY     67  63  87 S5        30.03R FOG
6HR MIN TEMP:  61; 6HR MAX TEMP:  67;

COLDWATER*     SUNNY     64  61  91 SE3       30.07S FOG
6HR MIN TEMP:  57; 6HR MAX TEMP:  65;

HILLSDALE*     SUNNY     64  63  96 S3        30.09R FOG
6HR MIN TEMP:  58; 6HR MAX TEMP:  64;

HOLLAND        SUNNY     66  62  87 S6        30.03R
6HR MIN TEMP:  62; 6HR MAX TEMP:  66;

GRAND RAPIDS   MOSUNNY   66  62  87 S8        30.03R FOG
6HR MIN TEMP:  61; 6HR MAX TEMP:  67;

KALAMAZOO      SUNNY     66  60  81 S6        30.05F
6HR MIN TEMP:  61; 6HR MAX TEMP:  69;

STURGIS*       SUNNY     64  61  88 S3        30.06S
THREE RIVERS*  FAIR      65  61  89 CALM      30.06R FOG
6HR MIN TEMP:  59; 6HR MAX TEMP:  65;


$$
OHZ001>008-015>018-024>025-061300-
NORTHWEST OHIO

CITY           SKY/WX    TMP DP  RH WIND       PRES   REMARKS
DEFIANCE       SUNNY     63  60  90 CALM      30.07F FOG
6HR MIN TEMP:  58; 6HR MAX TEMP:  63;

FINDLAY        SUNNY     64  61  90 CALM      30.09R FOG
6HR MIN TEMP:  59; 6HR MAX TEMP:  65;

TOLEDO EXPRESS SUNNY     62  57  83 CALM      30.08R
6HR MIN TEMP:  55; 6HR MAX TEMP:  62;

TOLEDO METCALF SUNNY     64  60  87 CALM      30.09R FOG
6HR MIN TEMP:  60; 6HR MAX TEMP:  64;

LIMA           SUNNY     64  61  90 CALM      30.10R FOG
6HR MIN TEMP:  58; 6HR MAX TEMP:  64;


$$
AND FOR LAKE MICHIGAN COASTAL AND OPEN LAKE BUOY OBSERVATIONS

STATION/POSITION TEMP    WIND        PRES    VSBY  WAVE
                 AIR SEA DIR/SP/G                  HT/PER
                 (F)     (DEG/KT/KT) (MB)    (MI)  (FT/S)
CALUMET HARBOR    69     200/  4/  9   N/A
MICHIGAN CITY     69     150/ 11/ 15   N/A
BURNS HARBOR      69     190/ 10/ 16 1016.6S
SAINT JOSEPH      69     160/  4/  7 1017.3R
4 MI NW BRIDGMAN  67 65  230/  8/ 10   N/A           1/ 2
MICHIGAN CITY     67 66  190/  6/  8   N/A           1

$$
&&


USA.gov is the U.S. government's official web portal to all federal, state and local government web resources and services.